Content
SEND FEEDBACK

Daily
Averages
Monthly
Summary
United States of America

SAN FRANCISCO, CALIFORNIA


Home > North America > United States > California
Elevation: 128 feet     Latitude: 37 46N     Longitude: 122 26W

WEATHER
 
SELECT A DAY
Number of Records: 184,955;   Date Range: 1/1/95 - 8/30/14
 
SHARE

PRINT THIS DATA

[ ← Previous Day ]
WEATHER ALMANAC - MARCH 29, 2014
[ Next Day → ]
[ °C ]   °F
Weather ElementAverageHighLow
Temperature57.7 °F60.8 °F (3:44 am)53.1 °F (11:56 pm)
Dewpoint52.7 °F57.2 °F (11:25 am)46.9 °F (10:56 pm)
Humidity83.8 %94 % (11:47 am)72 % (1:56 am)
Barometer30.06 in30.12 in (1:56 am)30.02 in (5:56 pm)
Wind Speed10 mph23 mph (2:56 pm)
Wind Gust26.5 mph (2:56 pm)
Weather ElementAverage
Visibility8.3 mi
Wind DirectionSSW (206.8 °)

Weather ElementTotal
Precipitation0.90 in
Heating Degree Days8.1 (Base 65)
Growing Degree Days7 (Base 50)
Averaged from 31 records on March 29, 2014
WEATHER CONDITIONS BREAKOUT
WIND DIRECTION BREAKOUT
WEATHER BY HOUR - MARCH 29, 2014
[ °C ]   °F
Local TimeTemperatureDewpointHumidityBarometerVisibilityWind DirectionWind SpeedGust SpeedPrecipitationEventsConditions
1:56 AM60.1 °F51.1 °F72 %30.12 in10.0 miSouth (170°)19.6 mphMostly Cloudy
2:56 AM59.0 °F52.0 °F78 %30.11 in10.0 miSSE (160°)16.1 mphClear
3:44 AM60.8 °F51.8 °F72 %30.10 in10.0 miSSE (160°)15.0 mph20.7 mphMostly Cloudy
3:56 AM60.1 °F51.1 °F72 %30.10 in10.0 miSSE (160°)13.8 mphOvercast
4:52 AM60.8 °F53.6 °F77 %30.08 in10.0 miSSE (160°)12.7 mphOvercast
4:56 AM60.1 °F53.1 °F78 %30.08 in10.0 miSSE (160°)12.7 mphOvercast
5:56 AM59.0 °F55.0 °F87 %30.07 in6.0 miSSE (150°)12.7 mph0.00 inRainLight Rain
6:56 AM57.9 °F55.0 °F90 %30.06 in10.0 miSE (140°)11.5 mph0.01 inRainLight Rain
7:56 AM59.0 °F55.0 °F87 %30.06 in8.0 miSSE (150°)11.5 mph0.04 inRainLight Rain
8:56 AM59.0 °F55.9 °F90 %30.06 in7.0 miSSE (150°)10.4 mph0.00 inRainLight Rain
9:56 AM59.0 °F55.9 °F90 %30.06 in7.0 miESE (120°)9.2 mph0.03 inRainLight Rain
10:56 AM60.1 °F57.0 °F90 %30.07 in3.0 miSE (140°)8.1 mph0.03 inRainLight Rain
11:25 AM60.8 °F57.2 °F88 %30.08 in2.0 miCalm0.06 inRainRain
11:47 AM59.0 °F57.2 °F94 %30.09 in1.5 miCalm0.19 inRainHeavy Rain
11:56 AM59.0 °F55.9 °F90 %30.08 in1.5 miWSW (240°)5.8 mph0.30 inRainHeavy Rain
12:10 PM59.0 °F55.4 °F88 %30.09 in4.0 miWest (270°)5.8 mph0.08 inRainRain
12:56 PM55.9 °F54.0 °F93 %30.07 in7.0 miWNW (290°)9.2 mph0.14 inRainLight Rain
1:56 PM57.9 °F54.0 °F87 %30.06 in10.0 miWest (270°)8.1 mph0.00 inOvercast
2:56 PM57.9 °F51.1 °F78 %30.07 in10.0 miWest (270°)23.0 mph26.5 mph0.00 inMostly Cloudy
3:56 PM57.9 °F50.0 °F75 %30.05 in10.0 miWest (280°)15.0 mphOvercast
4:56 PM55.9 °F51.1 °F84 %30.04 in9.0 miWest (260°)9.2 mph0.01 inRainLight Rain
5:56 PM57.0 °F52.0 °F83 %30.02 in10.0 miWest (270°)6.9 mph0.01 inRainLight Rain
6:56 PM55.0 °F51.1 °F86 %30.02 in10.0 miWNW (290°)5.8 mph0.00 inOvercast
7:28 PM55.4 °F51.8 °F88 %30.02 in10.0 miWest (270°)6.9 mphOvercast
7:44 PM55.4 °F51.8 °F88 %30.03 in10.0 miWest (260°)10.4 mphOvercast
7:56 PM55.0 °F51.1 °F86 %30.03 in10.0 miWSW (250°)6.9 mphOvercast
8:56 PM55.9 °F52.0 °F87 %30.03 in10.0 miWNW (290°)8.1 mph0.00 inOvercast
9:24 PM55.4 °F50.0 °F82 %30.03 in10.0 miWest (280°)10.4 mphOvercast
9:56 PM55.0 °F48.0 °F77 %30.04 in10.0 miWest (270°)8.1 mph0.00 inOvercast
10:56 PM54.0 °F46.9 °F77 %30.04 in10.0 miWest (270°)9.2 mphMostly Cloudy
11:56 PM53.1 °F48.0 °F83 %30.05 in10.0 miWest (260°)9.2 mphScattered Clouds
Hourly data recorded from KSFO, located miles away from San Francisco, California







STORIES FROM OUR PARTNERS